STARLINK-36657

Last updated on Sun Mar 15 2026 00:02:07 GMT+0000 (Coordinated Universal Time)

1 67835U 26033Q 26073.58335648 -.01939682 00000+0 -16093-1 0 9992 2 67835 42.9990 241.4992 0001325 271.7664 261.0380 15.72220008 5450
UTC large
Height (km)
Speed (km/s)
/
Latitude / Longitude
Inclination (degrees)
Orbital Period (minutes)
Azimuth
Elevation
Range (km)
Doppler Factor

Next 0 passes for location: London (51.5072 / 0.1276)

Sorry there are no passes over London.